Location: Newark
(44.2003°N, 3.2583°E)
Time: 14:27:02
(UTC+00:00)

A-11 Canister half - All Passes

Search period start: 16 October 2019 00:00
Search period end: 26 October 2019 00:00
Orbit: 1527 x 1682 km, 47.3° (Epoch: 15 October)

Date Brightness Start Highest point End Pass type
(mag) Time Alt. Az. Time Alt. Az. Time Alt. Az.
16 Oct - 01:14:18 10° WNW 01:23:40 86° NNE 01:33:12 10° ESE visible
16 Oct - 03:19:29 10° WNW 03:28:18 48° SW 03:37:19 10° SSE visible
16 Oct - 05:27:37 10° W 05:31:32 13° WSW 05:35:30 10° SSW visible
16 Oct - 18:40:44 10° S 18:47:44 24° SE 18:54:39 10° E visible
16 Oct - 20:42:12 10° SW 20:51:28 67° SSE 21:00:40 10° ENE visible
16 Oct - 22:47:10 10° W 22:56:31 76° N 23:05:55 10° ENE visible
17 Oct - 00:52:40 10° WNW 01:02:03 84° NNE 01:11:32 10° ESE visible
17 Oct - 02:57:50 10° WNW 03:06:43 50° SW 03:15:47 10° SSE visible
17 Oct - 05:05:33 10° W 05:10:01 14° SW 05:14:31 10° SSW visible
17 Oct - 18:19:25 10° S 18:26:11 23° SE 18:32:53 10° E visible
17 Oct - 20:20:37 10° SW 20:29:52 65° SSE 20:39:02 10° ENE visible
17 Oct - 22:25:30 10° W 22:34:53 77° N 22:44:16 10° ENE visible
18 Oct - 00:31:03 10° WNW 00:40:25 83° NNE 00:49:53 10° ESE visible
18 Oct - 02:36:13 10° WNW 02:45:07 52° SW 02:54:14 10° SE visible
18 Oct - 04:43:35 10° W 04:48:29 15° SW 04:53:27 10° SSW visible
18 Oct - 17:58:07 10° S 18:04:39 21° SE 18:11:06 10° E visible
18 Oct - 19:59:02 10° SW 20:08:16 63° SSE 20:17:24 10° ENE visible
18 Oct - 22:03:51 10° W 22:13:14 78° N 22:22:37 10° ENE visible
19 Oct - 00:09:24 10° WNW 00:18:46 82° NNE 00:28:14 10° ESE visible
19 Oct - 02:14:34 10° WNW 02:23:32 54° SW 02:32:41 10° SE visible
19 Oct - 04:21:39 10° W 04:26:57 17° SW 04:32:19 10° SSW visible
19 Oct - 17:36:51 10° S 17:43:08 20° SE 17:49:18 10° E visible
19 Oct - 19:37:28 10° SW 19:46:41 61° SE 19:55:47 10° ENE visible
19 Oct - 21:42:12 10° W 21:51:35 79° NNW 22:00:58 10° ENE visible
19 Oct - 23:47:46 10° WNW 23:57:08 80° NNE 00:06:34 10° ESE night (unlit)
20 Oct - 01:52:56 10° WNW 02:01:57 57° SW 02:11:08 10° SE visible
20 Oct - 03:59:46 10° W 04:05:25 18° SW 04:11:09 10° SSW visible
20 Oct - 17:15:37 10° SSE 17:21:35 19° SE 17:27:29 10° E visible
20 Oct - 19:15:54 10° SW 19:25:05 58° SE 19:34:08 10° ENE visible
20 Oct - 21:20:32 10° W 21:29:57 80° NNW 21:39:19 10° ENE visible
20 Oct - 23:26:08 10° WNW 23:35:29 79° NNE 23:44:55 10° E visible
21 Oct - 01:31:19 10° WNW 01:40:22 59° SW 01:49:34 10° SE visible
21 Oct - 03:37:56 10° W 03:43:53 19° SW 03:49:56 10° SSW visible
21 Oct - 16:54:24 10° SSE 17:00:03 18° SE 17:05:38 10° E daylight
21 Oct - 18:54:20 10° SW 19:03:30 56° SE 19:12:31 10° ENE visible
21 Oct - 20:58:52 10° WSW 21:08:19 81° NNW 21:17:41 10° ENE visible
21 Oct - 23:04:29 10° WNW 23:13:51 78° NNE 23:23:15 10° E visible
22 Oct - 01:09:40 10° WNW 01:18:46 61° SW 01:28:00 10° SE visible
22 Oct - 03:16:07 10° W 03:22:21 20° SW 03:28:40 10° S visible
22 Oct - 16:33:14 10° SSE 16:38:31 16° SE 16:43:44 10° E daylight
22 Oct - 18:32:47 10° SW 18:41:55 54° SE 18:50:53 10° ENE visible
22 Oct - 20:37:13 10° WSW 20:46:41 82° NNW 20:56:03 10° ENE visible
22 Oct - 22:42:50 10° WNW 22:52:12 78° N 23:01:36 10° E visible
23 Oct - 00:48:03 10° WNW 00:57:11 63° SSW 01:06:25 10° SE night (unlit)
23 Oct - 02:54:19 10° W 03:00:49 22° SW 03:07:24 10° S visible
23 Oct - 16:12:07 10° SSE 16:17:00 15° SE 16:21:48 10° E daylight
23 Oct - 18:11:15 10° SW 18:20:20 52° SE 18:29:15 10° ENE visible
23 Oct - 20:15:34 10° WSW 20:25:02 83° NNW 20:34:24 10° ENE visible
23 Oct - 22:21:11 10° WNW 22:30:34 77° N 22:39:56 10° E visible
24 Oct - 00:26:25 10° WNW 00:35:35 66° SSW 00:44:51 10° SE night (unlit)
24 Oct - 02:32:32 10° W 02:39:17 23° SW 02:46:06 10° S visible
24 Oct - 15:51:04 10° SSE 15:55:28 14° SE 15:59:49 10° E daylight
24 Oct - 17:49:42 10° SSW 17:58:45 50° SE 18:07:37 10° ENE visible
24 Oct - 19:53:54 10° WSW 20:03:25 84° NNW 20:12:47 10° ENE visible
24 Oct - 21:59:32 10° WNW 22:08:56 76° N 22:18:17 10° E visible
25 Oct - 00:04:47 10° WNW 00:13:59 68° SSW 00:23:16 10° SE night (unlit)
25 Oct - 02:10:47 10° W 02:17:44 24° SW 02:24:47 10° S night (unlit)
25 Oct - 15:30:07 10° SSE 15:33:56 13° ESE 15:37:44 10° E daylight
25 Oct - 17:28:10 10° SSW 17:37:10 48° SE 17:45:59 10° ENE visible
25 Oct - 19:32:15 10° WSW 19:41:46 86° NNW 19:51:08 10° ENE visible
25 Oct - 21:37:53 10° W 21:47:17 75° N 21:56:38 10° E visible
